Flag for Germany Weather past 2 weeks in Homberg (Efze), Hesse, Germany

Now
65 °F

Passing clouds.


Feels Like: 65 °F
Forecast: 57 / 67 °F
Wind: 1 mph from Southeast

Location: Fritzlar

Current Time: Jul 7, 2015 at 9:41:47 AM

Latest Report: Jul 7, 2015 at 9:00 AM


Visibility: 25 mi

Pressure: 29.97 "Hg

Humidity: 68%

Dew point: 54 °F

Location of Homberg (Efze)Location

Historic Weather in Homberg (Efze) — Graph

°F

Homberg (Efze) temperature yesterday

Maximum temperature yesterday: 79 °F (at 7:00 PM)
Minimum temperature yesterday: 58 °F (at 6:00 AM)
Average temperature yesterday: 69 °F

Past Weeks' High & Low Weather Summary

 TemperatureHumidityPressure
High97 °F (Jul 4, 4:00 PM)97% (Jun 25, 4:00 AM)30.25 "Hg (Jun 25, 4:00 AM)
Low43 °F (Jun 25, 5:00 AM)30% (Jul 2, 5:00 PM)29.67 "Hg (Jun 23, 1:00 AM)
Average67 °F68%30.09 "Hg
* Reported Jun 22 8:00 AM — Jul 7 8:00 AM, Homberg (Efze), Weather by CustomWeather, © 2015

Note: Actual official high and low records may vary slightly from our data, if they occured in-between our weather recording intervals... More about our weather records

Advertising

Homberg (Efze) weather history for previous 24 hours

 ConditionsComfort  
Time TempWeatherWind HumidityBarometerVisibility
8:00 AM
Tue, Jul 7
61 °FPassing clouds.1 mph81%30.00 "Hg25 mi
7:00 AM56 °FPassing clouds.1 mph91%30.02 "Hg25 mi
6:00 AM54 °FSunny.2 mph94%30.03 "Hg25 mi
5:00 AM54 °FClear.2 mph93%30.04 "Hg47 mi
4:00 AM55 °FClear.2 mph89%30.04 "Hg16 mi
3:00 AM57 °FClear.2 mph86%30.06 "Hg16 mi
2:00 AM58 °FClear.2 mph84%30.07 "Hg19 mi
1:00 AM58 °FClear.2 mph84%30.08 "Hg19 mi
12:00 AM59 °FClear.1 mph85%30.09 "Hg19 mi
10:00 PM
Mon, Jul 6
64 °FClear.1 mph74%30.09 "Hg25 mi
9:00 PM75 °FSunny.2 mph40%30.07 "Hg25 mi
8:00 PM78 °FSunny.3 mph32%30.07 "Hg25 mi
7:00 PM79 °FPassing clouds.3 mph32%30.08 "Hg25 mi
6:00 PM78 °FPassing clouds.2 mph30%30.08 "Hg25 mi
5:00 PM77 °FPassing clouds.3 mph31%30.10 "Hg25 mi
4:00 PM78 °FPassing clouds.6 mph34%30.12 "Hg25 mi
3:00 PM76 °FPassing clouds.6 mph35%30.13 "Hg25 mi
2:00 PM75 °FPassing clouds.6 mph40%30.14 "Hg25 mi
1:00 PM72 °FPassing clouds.6 mph44%30.16 "Hg25 mi
12:00 PM70 °FPassing clouds.5 mph49%30.17 "Hg25 mi
11:00 AM69 °FPassing clouds.3 mph59%30.17 "Hg22 mi
10:00 AM68 °FPassing clouds.5 mph66%30.17 "Hg19 mi
9:00 AM65 °FPassing clouds.6 mph76%30.16 "Hg12 mi
Weather by CustomWeather, © 2015

See weather overviewHow to use our weather pages